Regional Weather Roundup
Issued by NWS

Home | Current Version | Previous Version | Graphics & Text | Print | Product List | Glossary On
Versions: 1 2 3 4 5 6 7 8 9 10 11 12 13 14 15 16 17 18 19 20 21 22 23 24 25 26 27 28 29 30 31 32 33 34 35 36 37 38 39 40 41 42 43 44 45 46 47 48 49 50
000
ASUS43 KLOT 271802
RWRIL

ILLINOIS REGIONAL WEATHER ROUNDUP
NATIONAL WEATHER SERVICE CHICAGO/ROMEOVILLE IL
100 PM CDT WED MAY 27 2015

NOTE: "FAIR" INDICATES FEW OR NO CLOUDS BELOW 12,000 FEET WITH NO
SIGNIFICANT WEATHER AND/OR OBSTRUCTIONS TO VISIBILITY.

* THESE STATIONS ARE NOT UNDER NWS QUALITY CONTROL. THEY ALSO MAY NOT
  REPORT WEATHER SUCH AS PRECIPITATION OR FOG.

ILZ001-002-007-009-015-016-024-271900-
NORTHWEST ILLINOIS

CITY           SKY/WX    TMP DP  RH WIND       PRES   REMARKS
MOLINE         FAIR      74  57  55 NW10G20   30.02S
6HR MIN TEMP:  62; 6HR MAX TEMP:  75;

STERLING*      PTSUNNY   73  61  64 NW15G22   30.02S
$$

ILZ003-004-008-010-011-017-018-271900-
NORTH CENTRAL ILLINOIS

CITY           SKY/WX    TMP DP  RH WIND       PRES   REMARKS
ROCKFORD       PTSUNNY   72  58  61 W18       30.01S
6HR MIN TEMP:  63; 6HR MAX TEMP:  72; 6HR PCP:  0.01;

$$

ILZ005-006-012>014-019>023-271900-
NORTHEAST ILLINOIS

CITY           SKY/WX    TMP DP  RH WIND       PRES   REMARKS
CHICAGO-OHARE  PTSUNNY   72  58  61 W16G28    29.98R
6HR MIN TEMP:  65; 6HR MAX TEMP:  72; 6HR PCP: TRACE;

CHICAGO-MIDWAY LGT RAIN  67  61  81 SW13      29.99R
6HR MIN TEMP:  67; 6HR MAX TEMP:  75;

AURORA         MOSUNNY   74  59  59 W20G26    30.00S
6HR MIN TEMP:  65; 6HR MAX TEMP:  74;

WAUKEGAN       LGT RAIN  67  58  72 W8G18     29.97R
6HR MIN TEMP:  62; 6HR MAX TEMP:  71; 6HR PCP:  0.08;

DUPAGE AIRPORT PTSUNNY   72  58  61 W20G26    29.99R
6HR MIN TEMP:  63; 6HR MAX TEMP:  73;

WHEELING       PTSUNNY   72  59  63 W13       29.99R
6HR MIN TEMP:  65; 6HR MAX TEMP:  72; 6HR PCP: TRACE;

NORTHERLY ISL    N/A     68  59  73 W6          N/A
$$

LMZ740>746-271900-
SOUTHERN LAKE MICHIGAN

STATION/POSITION SKY/WX   TEMP    WIND        PRES    VSBY  WAVE
                          AIR SEA DIR/SP/G                  HT/PER
                          (F)     (DEG/KT/KT) (MB)    (MI)  (FT/S)
SOUTHERN BUOY              47 38  220/  4/  6 1015.1S         1/ 4
HARRISON CRIB              69     240/ 16/ 20   N/A
BURNHAM HARBOR             72     260/  9/ 18   N/A
CALUMET HARBOR             74     230/  8/ 17   N/A
BURNS HARBOR               67     270/ 13/ 18 1015.9R
MICHIGAN CITY              63     240/ 20/ 23   N/A
MICHIGAN CITY 6N           58 52  260/  8/ 10   N/A           1/ 3
ST. JOSEPH                 59 56  280/ 10/ 10   N/A           1/ 3
$$

ILZ025>027-034>036-040-047-049-050-058-095>099-271900-
WEST-CENTRAL ILLINOIS

CITY           SKY/WX    TMP DP  RH WIND       PRES   REMARKS
QUINCY         FAIR      74  58  57 NW9       30.07S
$$

ILZ028>032-037-038-041>044-048-051>054-059>061-271900-
CENTRAL ILLINOIS

CITY           SKY/WX    TMP DP  RH WIND       PRES   REMARKS
DECATUR        PTSUNNY   76  64  66 W12       30.03S
PEORIA         FAIR      76  57  51 W15       30.03S
6HR MIN TEMP:  67; 6HR MAX TEMP:  77;

SPRINGFIELD    FAIR      80  59  48 W17       30.04R HX  81
6HR MIN TEMP:  68; 6HR MAX TEMP:  80; 6HR PCP:  0.01;

TAYLORVILLE    NOT AVBL
$$

ILZ033-039-045-046-055>057-062-063-271900-
EAST-CENTRAL ILLINOIS

CITY           SKY/WX    TMP DP  RH WIND       PRES   REMARKS
CHAMPAIGN      MOSUNNY   78  65  63 W18G24    30.02F HX  80
$$

ILZ079-100>102-271900-
SOUTHWEST ILLINOIS

CITY           SKY/WX    TMP DP  RH WIND       PRES   REMARKS
ALTON          PTSUNNY   77  68  73 W12       30.06S
BELLEVILLE     FAIR      80  63  55 SW9G16    30.05S HX  81
CAHOKIA*       FAIR      81  62  52 MISG      30.05F HX  82
$$

ILZ064>066-069>071-074>076-080>082-084>086-088>090-092>094-271900-
SOUTH-CENTRAL ILLINOIS

CITY           SKY/WX    TMP DP  RH WIND       PRES   REMARKS
CARBONDALE     FAIR      78  65  63 SW12      30.08F HX  80
6HR MIN TEMP:  65; 6HR MAX TEMP:  78; 6HR PCP:  0.13;

MARION         PTSUNNY   77  66  69 MISG      30.08F
MT. VERNON     FAIR      77  64  65 S3        30.08F
$$

ILZ067-068-072-073-078-083-087-091-271900-
SOUTHEAST ILLINOIS

CITY           SKY/WX    TMP DP  RH WIND       PRES   REMARKS
LAWRENCEVILLE  PTSUNNY   79  62  56 W7        30.07R HX  80
$$

ABBREVIATIONS USED IN REMARKS
   TC - TEMPERATURE IN CELSIUS
  WCI - WIND CHILL INDEX
   HX - HEAT INDEX
  VSB - VISIBILITY
$$




USA.gov is the U.S. government's official web portal to all federal, state and local government web resources and services.